AirNav   Duncan Aviation - Near you to keep you flying
 
 486 users online  

KHOC Highland County Airport
Hillsboro, Ohio, USA

GOING TO HILLSBORO?


FAA INFORMATION EFFECTIVE 19 MAY 2022

Location

FAA Identifier: HOC
Lat/Long: 39-11-19.5408N 083-32-19.6495W
39-11.325680N 083-32.327492W
39.1887613,-83.5387915
(estimated)
Elevation: 977.3 ft. / 297.9 m (surveyed)
Variation: 05W (1990)
From city: 3 miles SE of HILLSBORO, OH
Time zone: UTC -4 (UTC -5 during Standard Time)
Zip code: 45133

Airport Operations

Airport use: Open to the public
Control tower: no
ARTCC: INDIANAPOLIS CENTER
FSS: DAYTON FLIGHT SERVICE STATION
NOTAMs facility: DAY (NOTAM-D service available)
Attendance: 0800-1700
Pattern altitude: 1677.3 ft. MSL
Wind indicator: lighted
Segmented circle: no
Lights: ACTVT REIL RWY 05 & 23; PAPI RWY 23; MIRL RWY 05/23 - CTAF.
Beacon: white-green (lighted land airport)
Operates sunset to sunrise.

Airport Communications

CTAF/UNICOM: 123.05
WX AWOS-3: 118.175 (937-393-9038)
WX ASOS at ILN (19 nm NW): PHONE 937-383-7334
  • APCH/DEP SVC PRVDD BY INDIANAPOLIS ARTCC ON FREQS 135.575/290.5 (PORTSMOUTH RCAG).

Nearby radio navigation aids

VOR radial/distance  VOR name  Freq  Var
MXQr144/18.9MIDWEST VOR/DME112.9004W
XUBr237/(33.0)YELLOW BUD VOR112.5005W

 
NDB name  Hdg/Dist  Freq  Var  ID
COURT HOUSE201/25.741406WCSS -.-. ... ...
WAVERLY279/28.338506WEOP . --- .--.
SPORTYS082/32.224504WPWF .--. .-- ..-.

Airport Services

Fuel available: 100LL
100LL:AVBL H24 SELF SVC VIA CREDIT CARD.
Parking: hangars and tiedowns
Airframe service: MAJOR
Powerplant service: MAJOR
Bottled oxygen: NONE
Bulk oxygen: NONE

Runway Information

Runway 5/23

Dimensions: 3520 x 75 ft. / 1073 x 23 m
Surface: asphalt, in good condition
Weight bearing capacity: 
Single wheel: 25.0
Runway edge lights: medium intensity
RUNWAY 5  RUNWAY 23
Latitude: 39-11.136602N39-11.514748N
Longitude: 083-32.609857W083-32.045102W
Elevation: 977.3 ft.930.9 ft.
Traffic pattern: leftleft
Runway heading: 054 magnetic, 049 true234 magnetic, 229 true
Markings: nonprecision, in good conditionnonprecision, in good condition
Visual slope indicator: 2-light PAPI on left (4.00 degrees glide path)
Runway end identifier lights: yesyes
Touchdown point: yes, no lightsyes, no lights
Obstructions: 25 ft. trees, 480 ft. from runway, 116 ft. right of centerline, 11:1 slope to clear30 ft. trees, 600 ft. from runway, 180 ft. left of centerline, 13:1 slope to clear
+45 FT TREE, 108 FT DIST, 121 FT R.

Airport Ownership and Management from official FAA records

Ownership: Publicly-owned
Owner: HIGHLAND COUNTY COMMISSIONERS
HIGHLAND COUNTY COURTHOUSE
HILLSBORO, OH 45133
Phone 937-393-9112
Manager: BOB PROSEK, AIRPORT AUTH PRESIDENT
9500 N SHORE DR
HILLSBORO, OH 45133-7799
Phone 937-393-9112

Airport Operational Statistics

Aircraft based on the field: 16
Single engine airplanes: 16
    
Aircraft operations: avg 25/day *
49% transient general aviation
49% local general aviation
3% military
<1% air taxi
* for 12-month period ending 31 December 2021

Additional Remarks

DEER & BIRDS ON & INVOF ARPT.
FOR CD IF UNA TO CTC ON FSS FREQ, CTC INDIANAPOLIS ARTCC AT 317-247-2411.

Instrument Procedures

NOTE: All procedures below are presented as PDF files. If you need a reader for these files, you should download the free Adobe Reader.

NOT FOR NAVIGATION. Please procure official charts for flight.
FAA instrument procedures published for use from 19 May 2022 at 0901Z to 16 June 2022 at 0900Z.

 
IAPs - Instrument Approach Procedures
RNAV (GPS) RWY 23   download (275KB)
NOTE: Special Take-Off Minimums/Departure Procedures apply   download (276KB)

Other nearby airports with instrument procedures:

KILN - Wilmington Air Park (19 nm NW)
KAMT - Alexander Salamon Airport (20 nm S)
I23 - Fayette County Airport (24 nm N)
I66 - Clinton Field Airport (24 nm NW)
KGEO - Brown County Airport (24 nm SW)
 
Loc | Ops | Rwys | IFR | FBO | Links
Com | Nav | Svcs | Stats | Notes
Area around KHOC (Highland County Airport)
 
Road maps at: MapQuest Bing Google
 
Aerial photo
WARNING: Photo may not be current or correct
Aerial photo of KHOC (Highland County Airport)
Photo courtesy of AirNav, LLC
Photo taken 24-Aug-2014
looking east.

Do you have a better or more recent aerial photo of Highland County Airport that you would like to share? If so, please send us your photo.

 
Sectional chart

 
Airport distance calculator
Flying to Highland County Airport? Find the distance to fly.

From to KHOC

Sunrise and sunset
Times for 23-May-2022
 Local
(UTC-4)
 Zulu
(UTC)
Morning civil twilight05:4509:45
Sunrise06:1610:16
Sunset20:4600:46
Evening civil twilight21:1701:17

Current date and time
Zulu (UTC)  23-May-2022 09:08:32
Local (UTC-4)  23-May-2022 05:08:32
 
METAR
KILN 
19nm NW 
230854Z AUTO 02006KT 10SM CLR 10/05 A3027 RMK AO2 SLP252 T01000050 56009
KI23 
24nm N 
230855Z AUTO 36005KT 10SM CLR 09/05 A3027 RMK AO1
KRZT 
28nm NE 
230855Z AUTO 35003KT 10SM OVC044 11/05 A3027 RMK AO2 PWINO
KI69 
32nm W 
230855Z AUTO 03006KT 10SM CLR 11/04 A3027 RMK AO2 T01100040
KI68 
37nm NW 
230855Z AUTO 02005KT 10SM CLR 10/04 A3028 RMK AO1 T01010035
TAF
KILN 
19nm NW 
230520Z 2306/2406 01010KT P6SM BKN100 FM231400 05010KT P6SM FEW050 BKN100 FM240000 05008KT P6SM SCT080
NOTAMs
Click for the latest NOTAMs
NOTAMs are issued by the DoD/FAA and will open in a separate window not controlled by AirNav.

 

 
 

FBO, Fuel Providers, and Aircraft Ground Support

  
 Business Name 
 
 Contact 
 
 Services / Description 
 
Fuel Prices
 
Comments
  
Highland County Airport 937-393-9112
no information available

If you are affiliated with Highland County Airport and would like to show here your services, contact info, web link, logo, and more, click here
100LL
SS $5.75 
 Updated 17-May-2022
 
   write
SS=Self service
Update Fuel Prices
 

Would you like to see your business listed on this page?

 If your business provides an interesting product or service to pilots, flight crews, aircraft, or users of the Highland County Airport, you should consider listing it here.  To start the listing process, click on the button below
 
Add a business
 

Other Pages about Highland County Airport

Update a link
 
Copyright © AirNav, LLC. All rights reserved. Privacy Policy  Contact